Epoch 2002 Mar. 27.0 TT = JDT 2452360.5 T 2002 Mar. 23.4156 TT MPCM q 1.634876 (2000.0) P Q z +0.003497 Peri. 20.4240 -0.1384998 -0.3220974 +/-0.000034 Node 269.0034 -0.9877433 -0.0238026 e 0.994283 Incl. 110.5016 -0.0719788 +0.9464073 From 341 observations 2002 Apr. 22-July 12, mean residual 0".6.
m1 = 6.0 + 5 logΔ + 25.0 log r